Kazsat

operational
NORAD ID: 29230 Int'l Des: 2006-022 Owner: KAZK Country: KZ
HEOCIRCULAR

About Kazsat

Description loading...

Live Position

Loading 3D Globe...

Upcoming Passes

Altitude History

Altitude vs Time

uPlot chart will show altitude changes over time

Two-Line Element Set

1 29230U 06022A 26015.36868493 -.00000241 00000-0 00000+0 0 9994
2 29230 11.5945 37.2049 0006665 213.2510 336.3216 0.99236394 71125
Epoch: Jan 15, 2026 • Age: 17 hours

Current Status

Altitude 36094.1 km
Velocity 3.06 km/s
Sub-Earth Point 11.62°N, 23.55°W
Launch Date Jun 17, 2006
Age 19.5 years
Type other

Technical Details

Classification Payload
Mass 1092.00 kg
Dry Mass 1000.00 kg
Total Mass 1092.00 kg
Length 3.00 m
Diameter 2.00 m
Span 7.00 m
Shape Box + 2 Pan
Manufacturer KHRR
Bus Type Kazsat
Phase Status In Orbit
Owner/State KAZK/KZ

Large Constellations

Loading constellations...